Home   Weather   Altstätten   Past weeks

Flag for Switzerland Past Weather in Altstätten, St. Gallen, Switzerland — Yesterday and Last 2 Weeks

Now
16 °F

Passing clouds.


Feels Like: 10 °F
Forecast: 7 / 24 °F
Wind: 3 mph from Southeast

Location: Saint Gallen-Altenrhein

Current Time: Jan 18, 2017 at 12:54:44 am

Latest Report: Jan 18, 2017 at 12:20 am


Visibility: N/A

Pressure: 30.39 "Hg

Humidity: 86%

Dew Point: 12 °F

Location of AltstättenLocation

Past Weather in Altstätten — Graph

°F

Altstätten Temperature Yesterday

Maximum temperature yesterday: 27 °F (at 12:20 am)
Minimum temperature yesterday: 19 °F (at 11:20 pm)
Average temperature yesterday: 26 °F

High & Low Weather Summary for the Past Weeks

 TemperatureHumidityPressure
High45 °F (Jan 11, 10:50 pm)100% (Jan 2, 11:20 pm)30.66 "Hg (Jan 2, 11:20 pm)
Low7 °F (Jan 7, 3:20 am)56% (Jan 11, 3:20 pm)29.45 "Hg (Jan 13, 12:50 am)
Average30 °F85%30.16 "Hg
* Reported Jan 2 11:20 pm — Jan 17 11:20 pm, Altstätten, Weather by CustomWeather, © 2017

Note: Actual official high and low records may vary slightly from our data, if they occured in-between our weather recording intervals... More about our weather records

Advertising

Altstätten Weather History for the Previous 24 Hours

Scroll right to see more
 ConditionsComfort  
Time TempWeatherWind HumidityBarometerVisibility
11:20 pm
Tue, Jan 17
19 °FClear.2 mph86%30.36 "HgN/A
10:50 pm21 °FPartly cloudy.2 mph80%30.36 "HgN/A
10:20 pm27 °FPassing clouds.5 mph69%30.36 "HgN/A
9:50 pm23 °FPassing clouds.3 mph74%30.36 "HgN/A
9:20 pm25 °FPartly cloudy.7 mph69%30.36 "HgN/A
8:50 pm27 °FPassing clouds.15 mph69%30.36 "HgN/A
8:20 pm27 °FPassing clouds.15 mph69%30.36 "HgN/A
7:50 pm27 °FPassing clouds.14 mph69%30.36 "HgN/A
7:20 pm27 °FPassing clouds.13 mph69%30.36 "HgN/A
6:50 pm27 °FPassing clouds.12 mph69%30.33 "HgN/A
6:20 pm27 °FPassing clouds.12 mph69%30.33 "HgN/A
5:50 pm27 °FPassing clouds.16 mph69%30.33 "HgN/A
5:20 pm27 °FPassing clouds.16 mph69%30.33 "HgN/A
4:50 pm27 °FScattered clouds.14 mph69%30.33 "HgN/A
4:20 pm27 °FScattered clouds.10 mph69%30.33 "HgN/A
3:50 pm27 °FScattered clouds.10 mph74%30.33 "HgN/A
3:20 pm27 °FScattered clouds.10 mph74%30.33 "HgN/A
2:50 pm27 °FScattered clouds.10 mph74%30.30 "HgN/A
2:20 pm27 °FScattered clouds.10 mph69%30.30 "HgN/A
1:50 pm27 °FScattered clouds.10 mph69%30.33 "HgN/A
1:20 pm27 °FScattered clouds.10 mph69%30.33 "HgN/A
12:50 pm25 °FScattered clouds.10 mph74%30.33 "HgN/A
12:20 pm25 °FScattered clouds.10 mph74%30.33 "HgN/A
11:50 am25 °FScattered clouds.12 mph74%30.36 "HgN/A
11:20 am25 °FScattered clouds.12 mph74%30.36 "HgN/A
10:50 am25 °FScattered clouds.14 mph74%30.36 "HgN/A
10:20 am25 °FScattered clouds.14 mph74%30.36 "HgN/A
9:50 am25 °FScattered clouds.14 mph74%30.33 "HgN/A
9:20 am25 °FScattered clouds.13 mph80%30.33 "HgN/A
8:50 am25 °FScattered clouds.14 mph80%30.33 "HgN/A
8:20 am25 °FPartly sunny.15 mph80%30.30 "HgN/A
7:50 am25 °FSnow flurries. Passing clouds.16 mph80%30.30 "HgN/A
7:20 am27 °FPassing clouds.13 mph80%30.30 "HgN/A
6:50 am27 °FPassing clouds.14 mph80%30.27 "HgN/A
6:20 am27 °FPassing clouds.15 mph80%30.27 "HgN/A
5:50 am27 °FLight snow. Overcast.16 mph80%30.27 "HgN/A
5:20 am27 °FLight snow. Partly cloudy.13 mph86%30.27 "HgN/A
4:50 am27 °FLight snow. Passing clouds.13 mph86%30.27 "HgN/A
4:20 am27 °FLight snow. Mostly cloudy.13 mph80%30.27 "HgN/A
3:50 am27 °FLight snow. Passing clouds.9 mph86%30.27 "HgN/A
3:20 am27 °FLight snow. Partly cloudy.12 mph86%30.27 "HgN/A
2:50 am27 °FLight snow. Partly cloudy.9 mph86%30.27 "HgN/A
2:20 am27 °FLight snow. Passing clouds.9 mph86%30.24 "HgN/A
1:50 am27 °FOvercast.10 mph80%30.24 "HgN/A
1:20 am27 °FPassing clouds.10 mph80%30.24 "HgN/A
12:50 am27 °FPassing clouds.5 mph80%30.24 "HgN/A
12:20 am27 °FPartly cloudy.5 mph80%30.24 "HgN/A
Weather by CustomWeather, © 2017

See weather overviewHow to use our weather pages